Location: Cheyres
(46.8153°N, 6.7877°E)
Time: 04:31:09
(UTC+00:00)

Envisat - Visible Passes

Search period start: 04 March 2024 00:00
Search period end: 14 March 2024 00:00
Orbit: 762 x 764 km, 98.3° (Epoch: 03 March)

Date Brightness Start Highest point End Pass type
(mag) Time Alt. Az. Time Alt. Az. Time Alt. Az.
04 Mar 5.6 01:51:56 10° NE 01:53:39 16° ENE 01:53:39 16° ENE visible
04 Mar 3.4 03:29:53 10° N 03:33:49 49° NNW 03:33:49 49° NNW visible
04 Mar 5.0 05:12:32 10° NW 05:12:51 10° NW 05:13:12 10° NW visible
05 Mar 3.9 02:52:33 10° NNE 02:56:13 45° NE 02:56:13 45° NE visible
05 Mar 4.4 04:32:32 10° NNW 04:36:07 20° WNW 04:36:24 20° WNW visible
06 Mar 4.9 02:15:39 10° NNE 02:18:38 26° ENE 02:18:38 26° ENE visible
06 Mar 3.6 03:54:30 10° N 03:58:49 37° WNW 03:58:49 37° WNW visible
07 Mar 5.7 01:39:39 10° NE 01:41:02 13° ENE 01:41:02 13° ENE visible
07 Mar 3.2 03:16:56 10° NNE 03:21:13 62° N 03:21:13 62° N visible
07 Mar 4.8 04:57:58 10° NNW 05:00:10 13° NW 05:01:23 12° WNW visible
08 Mar 4.0 02:39:44 10° NNE 02:43:37 43° ENE 02:43:37 43° ENE visible
08 Mar 4.1 04:19:18 10° N 04:23:21 25° WNW 04:23:47 24° WNW visible
09 Mar 5.1 02:03:02 10° NE 02:06:01 22° ENE 02:06:01 22° ENE visible
09 Mar 3.2 03:41:27 10° N 03:46:12 48° WNW 03:46:12 48° WNW visible
10 Mar 5.9 01:27:57 10° ENE 01:28:26 11° ENE 01:28:26 11° ENE visible
10 Mar 3.1 03:04:00 10° NNE 03:08:36 72° NE 03:08:36 72° NE visible
10 Mar 4.6 04:44:25 10° NNW 04:47:26 16° WNW 04:48:46 15° WNW visible
11 Mar 4.3 02:26:57 10° NNE 02:31:01 37° ENE 02:31:01 37° ENE visible
11 Mar 3.8 04:06:09 10° N 04:10:33 31° WNW 04:11:11 30° WNW visible
12 Mar 5.3 01:50:32 10° NE 01:53:25 18° E 01:53:25 18° E visible
12 Mar 2.9 03:28:27 10° N 03:33:29 62° WNW 03:33:35 62° W visible
12 Mar 5.0 05:10:49 10° NW 05:11:26 10° NW 05:12:04 10° WNW visible
13 Mar 3.3 02:51:08 10° NNE 02:55:59 63° E 02:55:59 63° E visible
13 Mar 4.4 04:31:04 10° NNW 04:34:41 20° WNW 04:36:10 18° W visible
